Location: Sungai Dangang
(2.7500°N, 113.8333°E)
Time: 18:54:41
(UTC+00:00)

Cosmos 2219 Rocket - Pass Details

Date: 16 May 2021
Orbit: 827 x 847 km, 71.0° (Epoch: 20 June)

Event Time Altitude Azimuth Distance (km) Brightness Sun altitude
Exits shadow 19:32:31 29° 74° (ENE) 1,484 3.9 -38.1°
Drops below altitude 10° 19:36:02 10° 41° (NE) 2,449 5.2 -37.3°
Sets 19:38:40 0° 32° (NNE) 3,384 6.1 -36.7°
